SCP
0 0 0 0 0 0 0 0 0 0 0 0 0 0 0 0 0 0 0 0 0 -0 -0 -0 -0 -0 0 0 0 0 0 0 0 -0 0 0 -0 -0 0 0 0 0 0
0 0 0 0 0 0 0 0 0 0 0 0 0 0 0 0 0 0 0 0 0 -0 -0 -0 -0 -0 -0 0 0 0 0 0 0 0 -0 0 0 0 -0 -0 0 0 0
0 0 0 0 0 0 0 0 0 0 0 0 0 0 0 0 0 0 0 0 -0 -0 -0 -0 -0 0 0 0 0 0 0 0 0 0 0 -0 0 0 -0 -0 -0 0 0
0 0 0 0 0 0 0 0 0 0 0 0 0 0 0 0 0 0 0 0 -0 -0 -0 0 0 0 0 0 0 0 0 0 0 0 0 0 -0 -0 0 -0 -0 -0 -0
0 0 0 0 0 0 0 0 0 0 0 0 0 0 0 0 0 0 0 0 0 0 0 0 0 0 0 0 0 0 0 0 0 0 0 0 0 -0 -0 0 0 -0 -0
0 0 0 0 0 0 0 0 0 0 0 0 0 0 0 0 0 0 0 0 0 0 0 0 0 0 0 0 0 0 0 0 0 0 0 0 0 0 0 0 0 0 0
0 0 0 0 0 0 0 0 0 0 0 0 0 0 0 0 0 0 0 0 0 0 0 0 0 0 0 0 0 0 0 0 0 0 0 0 0 0 0 0 0 0 0
0 0 0 0 0 0 0 0 0 0 0 0 0 0 0 0 0 0 0 0 0 0 0 0 0 0 0 0 0 0 0 0 0 0 0 0 0 0 0 0 0 0 0
0 0 0 0 0 0 0 0 0 0 0 0 0 0 0 0 0 0 0 0 0 0 0 0 0 0 0 0 0 0 0 0 0 0 0 0 0 0 0 0 0 0 0
0 0 0 0 0 0 0 0 0 0 0 0 0 0 0 0 0 0 0 0 0 0 0 0 0 0 0 0 0 0 0 0 0 0 0 0 0 0 0 0 0 0 0
0 0 0 0 0 0 0 0 0 0 0 0 0 0 0 0 0 0 0 0 0 0 0 0 0 0 -0 -0 0 0 0 0 0 0 0 0 0 0 0 0 0 0 0
0 0 0 0 0 0 0 0 0 0 0 0 0 0 0 0 0 0 0 0 0 0 0 0 0 -0 -0 -0 -0 0 -0 0 0 0 0 0 0 0 0 0 0 0 0
0 0 0 0 0 0 0 0 0 0 0 0 0 0 0 0 0 0 0 0 0 0 0 0 0 -0 -0 0 0 0 0 0 0 0 0 0 0 0 0 0 0 0 0
0 0 0 0 0 0 0 0 0 0 0 0 0 0 0 0 0 0 0 0 0 0 0 0 0 0 0 0 0 0 0 0 0 0 0 0 0 0 0 0 0 0 0
0 0 0 0 0 0 0 0 0 0 0 0 0 0 0 0 0 0 0 0 0 0 0 -0 -0 0 0 0 0 0 0 0 0 0 0 0 0 0 0 0 0 0 0
0 0 0 0 0 0 0 0 0 0 0 0 0 0 0 0 0 0 0 0 0 0 0 -0 -0 -0 0 0 0 0 0 0 0 0 0 0 0 0 0 0 0 0 0
0 0 0 0 0 0 0 0 0 0 0 0 0 0 0 0 0 0 0 0 0 0 0 0 0 0 0 0 0 0 0 0 0 0 0 0 0 0 0 0 0 0 0
0 0 0 0 0 0 0 0 0 0 0 0 0 0 0 0 0 0 0 0 0 0 0 0 0 0 0 0 0 0 0 0 0 0 0 0 0 0 0 0 0 0 0
0 0 0 0 0 0 0 0 0 0 0 0 0 0 0 0 0 0 0 0 0 0 0 0 0 0 0 0 0 0 0 0 0 0 0 0 0 0 0 0 0 0 0
0 0 0 0 0 0 0 0 0 0 0 0 0 0 0 0 0 0 0 0 0 0 0 0 0 0 0 0 0 0 0 0 0 0 0 0 0 0 0 0 0 0 0
0 0 0 0 0 0 0 0 0 0 0 0 0 0 0 0 0 0 0 0 0 0 0 0 0 0 0 0 0 0 0 0 0 0 0 0 0 0 0 0 0 0 0
0 0 0 0 0 0 0 0 0 0 0 0 0 0 0 0 0 0 0 0 0 0 0 0 0 0 0 0 0 0 0 0 0 0 0 0 0 0 0 0 0 0 0
0 0 0 0 0 0 0 0 0 0 0 0 0 0 0 0 0 0 0 0 0 0 0 0 0 0 0 0 0 0 0 0 0 0 0 0 0 0 0 0 0 0 0
0 0 0 0 0 0 0 0 0 0 0 0 0 0 0 0 -0 -0 -0 0 0 0 0 0 0 0 0 0 0 0 0 0 0 0 0 0 0 0 0 0 0 0 0
0 0 0 0 0 0 0 0 0 0 0 0 0 0 0 0 -0 -0 -0 0 0 0 0 0 0 0 0 0 0 0 0 0 0 0 0 0 0 -0 0 0 0 0 0
0 0 0 0 0 0 0 0 0 0 0 0 0 0 -0 -0 -0 0 0 0 0 0 0 0 0 0 0 0 0 0 0 0 0 0 0 0 0 0 0 0 0 0 0
Wind_Speed_500mb
19 13 6 3 3 8 13 18 21 25 28 31 32 35 39 44 49 54 61 66 70 73 74 76 75 72 71 70 69 69 71 69 81 98 94 92 92 88 78 69 69 65 60
22 16 11 9 9 13 18 22 26 31 34 36 38 41 46 50 56 62 67 72 76 79 81 80 81 82 83 79 77 76 76 75 78 93 94 93 93 93 92 85 73 74 72
28 22 18 16 16 19 22 26 31 35 40 44 47 49 53 57 63 68 72 75 77 79 81 82 83 84 87 87 84 82 82 79 76 78 98 92 94 90 95 93 89 81 76
34 29 25 23 24 25 26 31 36 40 45 47 49 53 56 61 66 70 73 77 79 79 82 85 87 85 85 84 84 84 74 68 69 72 84 93 73 74 82 87 92 85 85
40 37 33 32 31 30 31 34 38 43 48 50 52 56 58 63 67 71 75 78 81 84 85 87 86 84 81 76 66 69 64 68 71 70 71 73 69 54 55 60 75 75 83
46 41 42 43 40 37 36 37 41 47 53 55 57 59 62 65 67 69 73 78 82 85 88 86 83 79 73 70 62 57 55 62 71 75 72 68 68 58 61 65 69 72 77
50 53 55 52 49 44 40 41 47 54 58 59 61 62 63 64 67 70 74 78 80 81 81 80 77 71 67 65 61 55 53 52 53 61 73 73 78 68 68 71 73 77 79
57 60 60 57 53 48 43 46 52 58 60 60 62 62 63 64 68 69 73 77 79 77 74 70 67 67 66 59 59 62 60 62 58 57 62 69 67 63 59 62 66 71 80
49 56 58 57 55 52 49 50 53 59 63 62 62 62 64 64 65 68 73 75 75 73 67 61 62 68 64 56 64 72 75 76 69 61 60 60 59 55 54 58 70 78 88
49 49 52 56 58 57 54 53 54 62 65 64 64 62 62 64 64 66 68 68 69 68 69 72 70 58 60 60 64 69 77 80 78 75 73 73 74 68 55 54 58 66 78
46 52 57 60 61 60 57 55 57 62 67 65 66 62 60 61 60 60 60 54 56 63 69 73 72 67 62 66 69 78 86 83 87 87 83 74 58 56 75 74 67 67 72
48 55 61 64 62 61 58 57 59 63 66 66 66 62 59 58 56 55 55 40 45 54 64 72 74 74 66 66 68 70 65 65 74 80 81 82 82 83 83 79 77 73 74
54 57 61 62 61 60 60 59 60 63 65 65 64 63 61 58 53 49 46 48 44 51 59 59 62 72 70 68 62 56 56 54 62 70 77 78 73 74 74 72 71 73 78
58 58 60 59 59 59 59 59 62 61 60 63 61 60 61 60 54 48 49 54 54 58 71 69 62 63 57 54 52 49 48 48 51 56 59 61 60 60 64 66 72 73 78
56 57 57 56 56 56 57 59 63 58 57 58 56 56 58 59 52 43 43 46 49 57 59 58 60 57 54 51 49 47 47 48 49 51 54 57 57 61 67 64 64 66 69
58 57 55 55 56 58 60 61 55 54 53 55 51 49 50 51 43 38 40 41 48 53 51 54 52 53 54 55 55 53 50 50 50 51 52 56 59 64 65 59 55 62 69
53 56 56 58 58 59 61 61 56 47 52 50 48 48 48 46 35 35 36 37 41 41 45 45 47 48 51 53 55 56 58 54 52 50 53 54 56 59 60 63 63 64 68
53 55 56 57 60 62 60 57 56 57 54 43 41 46 46 40 36 29 33 39 37 34 38 40 44 45 48 51 54 56 58 59 57 54 55 56 56 58 58 58 59 61 63
53 55 56 59 61 60 57 57 57 55 53 50 40 35 42 44 35 34 35 35 39 39 40 40 41 45 47 50 52 54 57 60 61 61 62 61 58 58 57 56 59 58 58
53 55 58 59 60 59 58 59 57 53 51 47 44 36 34 44 38 31 29 32 35 37 40 42 43 44 47 49 51 54 58 60 64 66 70 67 61 57 56 56 54 57 59
52 54 58 61 61 58 58 58 55 52 49 45 42 37 34 39 39 36 34 34 38 40 42 45 45 46 46 47 49 51 55 58 63 68 74 70 61 58 54 52 52 50 48
56 58 60 63 61 60 57 55 53 52 47 45 40 36 35 36 37 39 38 39 41 43 44 48 48 46 46 46 47 47 53 54 62 67 73 67 59 54 51 49 47 45 42
58 58 57 56 54 54 54 52 51 49 46 43 40 37 34 35 38 40 41 42 43 41 41 43 46 44 42 40 39 40 48 47 56 63 67 63 56 51 47 45 43 40 35
50 49 49 48 48 50 50 48 46 45 43 41 38 37 37 38 40 41 41 41 41 39 38 40 41 41 40 37 35 33 36 35 48 57 55 53 51 46 43 39 36 33 30
38 37 36 37 38 40 41 40 40 39 40 41 41 41 40 42 41 39 39 40 39 37 35 36 36 36 35 32 31 29 31 27 45 50 43 42 42 40 38 36 33 30 27
29 30 30 31 32 34 35 37 38 39 40 40 40 41 41 41 39 37 37 38 37 36 36 34 33 32 31 29 27 26 28 27 39 38 34 35 37 38 39 37 34 31 28
Wind_Direction_500mb
201 198 200 259 327 332 337 337 334 333 331 328 327 328 329 329 328 328 328 328 327 324 322 319 316 312 307 302 298 294 289 285 284 285 285 288 289 290 288 286 286 287 285
217 217 229 262 294 317 324 325 326 326 326 324 322 322 324 325 326 325 325 325 325 323 321 319 316 313 309 305 301 296 293 291 289 289 289 287 284 286 288 287 282 280 281
223 227 244 262 279 296 310 319 322 323 324 323 321 321 323 324 325 324 325 325 323 321 318 315 312 309 306 305 304 301 298 293 290 290 289 290 289 287 287 287 286 281 276
227 236 249 261 277 291 307 317 319 319 319 317 317 319 320 322 322 323 324 323 321 319 315 313 311 309 306 303 299 296 295 293 292 289 290 291 293 292 288 290 290 288 284
232 241 251 262 273 284 299 307 313 314 315 314 315 316 318 320 322 323 323 322 320 317 315 314 312 310 307 305 301 298 293 290 290 289 287 290 289 290 290 291 292 295 290
237 248 255 262 269 276 286 296 307 313 313 312 314 316 318 321 322 322 322 321 319 317 316 316 314 313 311 308 303 296 291 288 283 282 283 282 282 281 281 281 281 287 291
244 248 254 260 265 267 278 294 302 307 309 309 312 313 315 319 322 323 322 319 318 317 317 317 317 316 317 314 308 301 297 291 283 283 281 278 281 283 282 280 276 273 272
247 252 256 260 263 265 277 290 295 303 305 305 308 311 314 321 322 322 320 320 318 318 318 320 320 321 321 311 311 308 307 303 297 292 290 291 289 292 293 295 298 293 290
258 262 261 262 262 262 272 281 292 302 302 301 306 310 314 318 320 321 322 319 317 318 323 324 325 323 323 310 307 302 299 297 300 298 288 283 283 283 281 283 280 280 280
268 271 267 261 260 261 268 278 290 301 299 300 305 309 313 316 320 321 319 317 318 322 326 326 325 311 308 305 301 300 298 300 303 301 300 298 297 294 284 273 275 278 279
266 266 264 261 259 262 268 277 292 299 297 298 302 305 310 313 316 318 319 320 321 324 316 316 318 317 309 306 300 294 292 297 295 292 291 291 291 284 289 294 285 278 275
266 266 261 258 259 264 271 278 290 293 295 295 298 302 308 311 315 318 321 320 315 311 316 317 321 320 308 304 300 297 294 293 289 289 289 289 289 289 288 289 289 284 280
265 266 261 259 261 267 274 280 288 292 293 293 298 302 306 308 313 318 324 325 322 317 312 311 307 308 309 308 308 304 302 296 290 288 287 284 285 287 288 287 285 283 283
260 262 260 259 263 269 275 281 288 290 289 291 294 298 302 306 317 324 325 331 328 321 309 315 322 320 318 314 309 306 305 305 305 305 303 298 299 300 297 295 293 293 291
261 263 262 263 267 272 277 282 287 288 285 288 291 294 301 308 315 318 316 317 318 306 310 324 327 328 332 333 330 326 320 317 315 313 311 311 307 307 307 306 298 293 284
262 266 266 268 272 276 279 283 283 282 283 287 291 291 292 294 300 305 308 308 301 306 320 325 331 340 345 346 345 341 337 332 328 325 321 322 319 318 314 311 297 290 286
267 268 268 270 274 278 282 283 283 276 281 283 285 287 285 290 293 298 301 304 304 316 319 326 334 340 344 347 349 349 346 343 336 331 330 328 325 324 320 313 304 294 292
265 267 272 278 280 280 281 279 279 280 281 276 280 282 285 283 288 295 295 303 309 308 317 326 332 338 341 344 346 347 349 348 345 341 337 333 331 329 324 319 309 300 296
269 271 273 273 273 275 275 276 276 277 280 285 282 277 279 283 286 290 293 301 307 314 321 327 332 336 338 341 342 345 348 349 347 348 344 338 335 331 326 322 318 311 303
275 276 275 273 272 271 272 272 272 274 275 279 282 281 268 275 280 280 286 295 302 308 315 321 327 331 334 335 339 343 346 348 347 350 348 341 337 333 328 325 323 316 311
279 276 274 273 271 272 269 268 269 269 272 274 276 274 272 274 285 289 293 299 303 308 313 316 321 325 328 331 333 339 343 345 347 349 347 341 337 334 333 329 326 321 311
284 282 278 276 274 270 269 266 266 267 268 270 270 268 268 273 280 285 291 297 301 305 310 312 315 320 323 326 328 332 340 344 346 349 346 340 340 338 337 335 334 332 327
288 284 280 277 274 270 267 265 264 263 264 264 266 267 267 273 278 285 290 295 298 302 306 308 311 314 317 320 324 327 336 345 345 350 344 341 342 343 343 342 342 343 345
299 294 286 279 275 273 270 267 262 261 261 262 265 269 273 276 281 287 291 294 296 301 305 307 310 312 317 320 323 327 338 347 347 349 343 344 347 348 349 351 354 354 356
314 308 300 292 284 280 274 268 262 260 261 264 268 271 275 278 282 286 290 291 295 300 303 306 308 311 314 317 321 326 336 348 353 342 346 354 358 359 2 2 4 3 4
319 314 308 300 293 288 280 274 269 267 267 268 271 274 276 278 281 284 286 287 292 296 300 303 306 308 311 313 317 319 329 345 349 337 353 1 6 12 16 18 18 19 21
Wind_Speed_850mb
19 13 6 3 3 8 13 18 21 25 28 31 32 35 39 44 49 54 61 66 70 73 74 76 75 72 71 70 69 69 71 69 81 98 94 92 92 88 78 69 69 65 60
22 16 11 9 9 13 18 22 26 31 34 36 38 41 46 50 56 62 67 72 76 79 81 80 81 82 83 79 77 76 76 75 78 93 94 93 93 93 92 85 73 74 72
28 22 18 16 16 19 22 26 31 35 40 44 47 49 53 57 63 68 72 75 77 79 81 82 83 84 87 87 84 82 82 79 76 78 98 92 94 90 95 93 89 81 76
34 29 25 23 24 25 26 31 36 40 45 47 49 53 56 61 66 70 73 77 79 79 82 85 87 85 85 84 84 84 74 68 69 72 84 93 73 74 82 87 92 85 85
40 37 33 32 31 30 31 34 38 43 48 50 52 56 58 63 67 71 75 78 81 84 85 87 86 84 81 76 66 69 64 68 71 70 71 73 69 54 55 60 75 75 83
46 41 42 43 40 37 36 37 41 47 53 55 57 59 62 65 67 69 73 78 82 85 88 86 83 79 73 70 62 57 55 62 71 75 72 68 68 58 61 65 69 72 77
50 53 55 52 49 44 40 41 47 54 58 59 61 62 63 64 67 70 74 78 80 81 81 80 77 71 67 65 61 55 53 52 53 61 73 73 78 68 68 71 73 77 79
57 60 60 57 53 48 43 46 52 58 60 60 62 62 63 64 68 69 73 77 79 77 74 70 67 67 66 59 59 62 60 62 58 57 62 69 67 63 59 62 66 71 80
49 56 58 57 55 52 49 50 53 59 63 62 62 62 64 64 65 68 73 75 75 73 67 61 62 68 64 56 64 72 75 76 69 61 60 60 59 55 54 58 70 78 88
49 49 52 56 58 57 54 53 54 62 65 64 64 62 62 64 64 66 68 68 69 68 69 72 70 58 60 60 64 69 77 80 78 75 73 73 74 68 55 54 58 66 78
46 52 57 60 61 60 57 55 57 62 67 65 66 62 60 61 60 60 60 54 56 63 69 73 72 67 62 66 69 78 86 83 87 87 83 74 58 56 75 74 67 67 72
48 55 61 64 62 61 58 57 59 63 66 66 66 62 59 58 56 55 55 40 45 54 64 72 74 74 66 66 68 70 65 65 74 80 81 82 82 83 83 79 77 73 74
54 57 61 62 61 60 60 59 60 63 65 65 64 63 61 58 53 49 46 48 44 51 59 59 62 72 70 68 62 56 56 54 62 70 77 78 73 74 74 72 71 73 78
58 58 60 59 59 59 59 59 62 61 60 63 61 60 61 60 54 48 49 54 54 58 71 69 62 63 57 54 52 49 48 48 51 56 59 61 60 60 64 66 72 73 78
56 57 57 56 56 56 57 59 63 58 57 58 56 56 58 59 52 43 43 46 49 57 59 58 60 57 54 51 49 47 47 48 49 51 54 57 57 61 67 64 64 66 69
58 57 55 55 56 58 60 61 55 54 53 55 51 49 50 51 43 38 40 41 48 53 51 54 52 53 54 55 55 53 50 50 50 51 52 56 59 64 65 59 55 62 69
53 56 56 58 58 59 61 61 56 47 52 50 48 48 48 46 35 35 36 37 41 41 45 45 47 48 51 53 55 56 58 54 52 50 53 54 56 59 60 63 63 64 68
53 55 56 57 60 62 60 57 56 57 54 43 41 46 46 40 36 29 33 39 37 34 38 40 44 45 48 51 54 56 58 59 57 54 55 56 56 58 58 58 59 61 63
53 55 56 59 61 60 57 57 57 55 53 50 40 35 42 44 35 34 35 35 39 39 40 40 41 45 47 50 52 54 57 60 61 61 62 61 58 58 57 56 59 58 58
53 55 58 59 60 59 58 59 57 53 51 47 44 36 34 44 38 31 29 32 35 37 40 42 43 44 47 49 51 54 58 60 64 66 70 67 61 57 56 56 54 57 59
52 54 58 61 61 58 58 58 55 52 49 45 42 37 34 39 39 36 34 34 38 40 42 45 45 46 46 47 49 51 55 58 63 68 74 70 61 58 54 52 52 50 48
56 58 60 63 61 60 57 55 53 52 47 45 40 36 35 36 37 39 38 39 41 43 44 48 48 46 46 46 47 47 53 54 62 67 73 67 59 54 51 49 47 45 42
58 58 57 56 54 54 54 52 51 49 46 43 40 37 34 35 38 40 41 42 43 41 41 43 46 44 42 40 39 40 48 47 56 63 67 63 56 51 47 45 43 40 35
50 49 49 48 48 50 50 48 46 45 43 41 38 37 37 38 40 41 41 41 41 39 38 40 41 41 40 37 35 33 36 35 48 57 55 53 51 46 43 39 36 33 30
38 37 36 37 38 40 41 40 40 39 40 41 41 41 40 42 41 39 39 40 39 37 35 36 36 36 35 32 31 29 31 27 45 50 43 42 42 40 38 36 33 30 27
29 30 30 31 32 34 35 37 38 39 40 40 40 41 41 41 39 37 37 38 37 36 36 34 33 32 31 29 27 26 28 27 39 38 34 35 37 38 39 37 34 31 28
Wind_Direction_850mb
201 198 200 259 327 332 337 337 334 333 331 328 327 328 329 329 328 328 328 328 327 324 322 319 316 312 307 302 298 294 289 285 284 285 285 288 289 290 288 286 286 287 285
217 217 229 262 294 317 324 325 326 326 326 324 322 322 324 325 326 325 325 325 325 323 321 319 316 313 309 305 301 296 293 291 289 289 289 287 284 286 288 287 282 280 281
223 227 244 262 279 296 310 319 322 323 324 323 321 321 323 324 325 324 325 325 323 321 318 315 312 309 306 305 304 301 298 293 290 290 289 290 289 287 287 287 286 281 276
227 236 249 261 277 291 307 317 319 319 319 317 317 319 320 322 322 323 324 323 321 319 315 313 311 309 306 303 299 296 295 293 292 289 290 291 293 292 288 290 290 288 284
232 241 251 262 273 284 299 307 313 314 315 314 315 316 318 320 322 323 323 322 320 317 315 314 312 310 307 305 301 298 293 290 290 289 287 290 289 290 290 291 292 295 290
237 248 255 262 269 276 286 296 307 313 313 312 314 316 318 321 322 322 322 321 319 317 316 316 314 313 311 308 303 296 291 288 283 282 283 282 282 281 281 281 281 287 291
244 248 254 260 265 267 278 294 302 307 309 309 312 313 315 319 322 323 322 319 318 317 317 317 317 316 317 314 308 301 297 291 283 283 281 278 281 283 282 280 276 273 272
247 252 256 260 263 265 277 290 295 303 305 305 308 311 314 321 322 322 320 320 318 318 318 320 320 321 321 311 311 308 307 303 297 292 290 291 289 292 293 295 298 293 290
258 262 261 262 262 262 272 281 292 302 302 301 306 310 314 318 320 321 322 319 317 318 323 324 325 323 323 310 307 302 299 297 300 298 288 283 283 283 281 283 280 280 280
268 271 267 261 260 261 268 278 290 301 299 300 305 309 313 316 320 321 319 317 318 322 326 326 325 311 308 305 301 300 298 300 303 301 300 298 297 294 284 273 275 278 279
266 266 264 261 259 262 268 277 292 299 297 298 302 305 310 313 316 318 319 320 321 324 316 316 318 317 309 306 300 294 292 297 295 292 291 291 291 284 289 294 285 278 275
266 266 261 258 259 264 271 278 290 293 295 295 298 302 308 311 315 318 321 320 315 311 316 317 321 320 308 304 300 297 294 293 289 289 289 289 289 289 288 289 289 284 280
265 266 261 259 261 267 274 280 288 292 293 293 298 302 306 308 313 318 324 325 322 317 312 311 307 308 309 308 308 304 302 296 290 288 287 284 285 287 288 287 285 283 283
260 262 260 259 263 269 275 281 288 290 289 291 294 298 302 306 317 324 325 331 328 321 309 315 322 320 318 314 309 306 305 305 305 305 303 298 299 300 297 295 293 293 291
261 263 262 263 267 272 277 282 287 288 285 288 291 294 301 308 315 318 316 317 318 306 310 324 327 328 332 333 330 326 320 317 315 313 311 311 307 307 307 306 298 293 284
262 266 266 268 272 276 279 283 283 282 283 287 291 291 292 294 300 305 308 308 301 306 320 325 331 340 345 346 345 341 337 332 328 325 321 322 319 318 314 311 297 290 286
267 268 268 270 274 278 282 283 283 276 281 283 285 287 285 290 293 298 301 304 304 316 319 326 334 340 344 347 349 349 346 343 336 331 330 328 325 324 320 313 304 294 292
265 267 272 278 280 280 281 279 279 280 281 276 280 282 285 283 288 295 295 303 309 308 317 326 332 338 341 344 346 347 349 348 345 341 337 333 331 329 324 319 309 300 296
269 271 273 273 273 275 275 276 276 277 280 285 282 277 279 283 286 290 293 301 307 314 321 327 332 336 338 341 342 345 348 349 347 348 344 338 335 331 326 322 318 311 303
275 276 275 273 272 271 272 272 272 274 275 279 282 281 268 275 280 280 286 295 302 308 315 321 327 331 334 335 339 343 346 348 347 350 348 341 337 333 328 325 323 316 311
279 276 274 273 271 272 269 268 269 269 272 274 276 274 272 274 285 289 293 299 303 308 313 316 321 325 328 331 333 339 343 345 347 349 347 341 337 334 333 329 326 321 311
284 282 278 276 274 270 269 266 266 267 268 270 270 268 268 273 280 285 291 297 301 305 310 312 315 320 323 326 328 332 340 344 346 349 346 340 340 338 337 335 334 332 327
288 284 280 277 274 270 267 265 264 263 264 264 266 267 267 273 278 285 290 295 298 302 306 308 311 314 317 320 324 327 336 345 345 350 344 341 342 343 343 342 342 343 345
299 294 286 279 275 273 270 267 262 261 261 262 265 269 273 276 281 287 291 294 296 301 305 307 310 312 317 320 323 327 338 347 347 349 343 344 347 348 349 351 354 354 356
314 308 300 292 284 280 274 268 262 260 261 264 268 271 275 278 282 286 290 291 295 300 303 306 308 311 314 317 321 326 336 348 353 342 346 354 358 359 2 2 4 3 4
319 314 308 300 293 288 280 274 269 267 267 268 271 274 276 278 281 284 286 287 292 296 300 303 306 308 311 313 317 319 329 345 349 337 353 1 6 12 16 18 18 19 21